QPF
0.00 0.01 0.04 0.10 0.27 0.17 0.08 0.03 0.01 0.01 0.01 0.02 0.01 0.00 0.00 0.00 0.02 0.05 0.04 0.03 0.01 0.00 0.00 0.00 0.00 0.00 0.00 0.00 0.00 0.00 0.00 0.00 0.00 0.00 0.00 0.00 0.00 0.00 0.01 0.01 0.01 0.01 0.01 0.01 0.01 0.01 0.01 0.01 0.02
0.00 0.02 0.06 0.17 0.29 0.23 0.08 0.04 0.01 0.00 0.01 0.01 0.01 0.00 0.00 0.01 0.01 0.01 0.03 0.07 0.02 0.00 0.00 0.00 0.00 0.00 0.00 0.00 0.00 0.01 0.01 0.00 0.00 0.00 0.00 0.00 0.01 0.01 0.01 0.01 0.01 0.01 0.01 0.01 0.01 0.01 0.01 0.01 0.01
0.01 0.04 0.10 0.22 0.25 0.18 0.08 0.03 0.02 0.00 0.00 0.00 0.00 0.01 0.01 0.03 0.03 0.01 0.03 0.06 0.02 0.01 0.00 0.00 0.00 0.00 0.00 0.00 0.00 0.00 0.01 0.00 0.00 0.01 0.01 0.01 0.01 0.01 0.01 0.01 0.01 0.01 0.01 0.01 0.00 0.00 0.01 0.01 0.01
0.02 0.04 0.10 0.18 0.19 0.09 0.05 0.02 0.02 0.01 0.00 0.00 0.01 0.03 0.03 0.02 0.02 0.01 0.02 0.05 0.02 0.01 0.00 0.00 0.00 0.00 0.00 0.00 0.00 0.00 0.00 0.01 0.01 0.01 0.01 0.01 0.01 0.01 0.01 0.01 0.02 0.01 0.01 0.01 0.00 0.00 0.00 0.01 0.01
0.01 0.04 0.09 0.16 0.09 0.05 0.05 0.03 0.02 0.01 0.01 0.01 0.01 0.05 0.05 0.03 0.02 0.02 0.02 0.05 0.03 0.01 0.00 0.00 0.00 0.00 0.00 0.01 0.00 0.00 0.00 0.00 0.01 0.01 0.01 0.01 0.01 0.02 0.02 0.02 0.02 0.02 0.01 0.00 0.00 0.00 0.00 0.00 0.01
0.00 0.02 0.07 0.09 0.06 0.04 0.04 0.04 0.01 0.01 0.00 0.00 0.02 0.06 0.05 0.04 0.04 0.05 0.04 0.05 0.03 0.01 0.00 0.00 0.00 0.00 0.01 0.01 0.01 0.00 0.00 0.01 0.01 0.01 0.01 0.01 0.01 0.01 0.02 0.01 0.02 0.02 0.01 0.00 0.00 0.00 0.01 0.01 0.01
0.01 0.02 0.05 0.08 0.04 0.03 0.03 0.03 0.02 0.01 0.00 0.01 0.01 0.03 0.05 0.05 0.04 0.05 0.06 0.06 0.03 0.01 0.00 0.00 0.00 0.00 0.01 0.01 0.01 0.01 0.01 0.01 0.01 0.00 0.00 0.01 0.01 0.01 0.01 0.01 0.01 0.02 0.01 0.00 0.00 0.00 0.00 0.01 0.01
0.00 0.01 0.02 0.05 0.03 0.03 0.03 0.02 0.02 0.01 0.00 0.01 0.02 0.04 0.07 0.06 0.04 0.04 0.05 0.05 0.04 0.03 0.02 0.01 0.00 0.00 0.01 0.01 0.01 0.01 0.01 0.01 0.00 0.00 0.00 0.01 0.01 0.01 0.01 0.01 0.01 0.02 0.01 0.00 0.00 0.00 0.00 0.00 0.01
0.00 0.00 0.02 0.02 0.01 0.03 0.03 0.01 0.02 0.02 0.01 0.02 0.03 0.05 0.05 0.04 0.04 0.04 0.04 0.04 0.04 0.06 0.10 0.07 0.02 0.01 0.01 0.01 0.01 0.01 0.01 0.01 0.01 0.01 0.01 0.01 0.01 0.01 0.01 0.00 0.01 0.01 0.01 0.01 0.00 0.00 0.00 0.00 0.01
0.00 0.00 0.03 0.01 0.01 0.02 0.01 0.01 0.02 0.02 0.02 0.04 0.06 0.07 0.10 0.05 0.03 0.02 0.02 0.03 0.05 0.06 0.08 0.06 0.03 0.01 0.01 0.00 0.00 0.01 0.01 0.01 0.00 0.01 0.01 0.01 0.01 0.01 0.01 0.02 0.02 0.02 0.01 0.01 0.00 0.01 0.01 0.01 0.01
0.00 0.00 0.00 0.00 0.00 0.00 0.01 0.01 0.02 0.03 0.02 0.03 0.03 0.04 0.04 0.05 0.02 0.02 0.02 0.04 0.06 0.07 0.07 0.07 0.05 0.03 0.02 0.01 0.00 0.00 0.01 0.01 0.00 0.01 0.01 0.01 0.01 0.01 0.02 0.01 0.02 0.01 0.01 0.00 0.01 0.01 0.02 0.03 0.05
0.00 0.00 0.00 0.00 0.00 0.00 0.00 0.01 0.01 0.02 0.03 0.02 0.03 0.03 0.02 0.02 0.02 0.02 0.03 0.06 0.07 0.08 0.08 0.09 0.12 0.11 0.09 0.04 0.01 0.01 0.01 0.01 0.01 0.01 0.01 0.01 0.01 0.02 0.02 0.01 0.01 0.01 0.01 0.00 0.01 0.02 0.03 0.05 0.05
0.00 0.00 0.00 0.00 0.00 0.00 0.00 0.00 0.01 0.03 0.03 0.04 0.04 0.02 0.02 0.03 0.04 0.04 0.06 0.13 0.10 0.09 0.08 0.09 0.13 0.19 0.18 0.11 0.04 0.02 0.02 0.01 0.01 0.01 0.01 0.01 0.01 0.01 0.02 0.01 0.01 0.01 0.01 0.01 0.01 0.02 0.03 0.04 0.03
0.00 0.00 0.00 0.00 0.00 0.00 0.00 0.00 0.01 0.04 0.04 0.04 0.05 0.05 0.03 0.03 0.03 0.05 0.08 0.13 0.16 0.14 0.12 0.08 0.08 0.14 0.19 0.13 0.07 0.04 0.03 0.02 0.02 0.01 0.01 0.01 0.01 0.01 0.01 0.01 0.02 0.03 0.02 0.02 0.02 0.02 0.03 0.03 0.03
0.00 0.00 0.00 0.00 0.00 0.00 0.00 0.00 0.00 0.02 0.03 0.03 0.05 0.08 0.09 0.06 0.05 0.04 0.04 0.10 0.22 0.19 0.13 0.08 0.09 0.12 0.16 0.12 0.09 0.06 0.04 0.04 0.04 0.03 0.02 0.01 0.02 0.01 0.01 0.01 0.01 0.02 0.02 0.03 0.03 0.03 0.03 0.03 0.03
0.00 0.00 0.00 0.00 0.00 0.00 0.00 0.00 0.00 0.01 0.02 0.03 0.04 0.12 0.18 0.09 0.06 0.06 0.08 0.13 0.21 0.21 0.19 0.15 0.14 0.14 0.16 0.14 0.11 0.10 0.10 0.07 0.06 0.05 0.03 0.02 0.02 0.01 0.01 0.01 0.01 0.02 0.02 0.02 0.02 0.02 0.02 0.03 0.04
0.00 0.00 0.00 0.00 0.00 0.00 0.00 0.00 0.01 0.01 0.03 0.04 0.04 0.13 0.20 0.10 0.06 0.06 0.13 0.17 0.22 0.19 0.21 0.23 0.21 0.19 0.17 0.15 0.13 0.16 0.17 0.11 0.08 0.05 0.03 0.02 0.02 0.01 0.01 0.01 0.02 0.02 0.02 0.03 0.02 0.01 0.01 0.01 0.02
0.00 0.00 0.00 0.01 0.01 0.01 0.01 0.01 0.01 0.01 0.02 0.03 0.04 0.06 0.07 0.06 0.04 0.05 0.07 0.11 0.13 0.16 0.20 0.25 0.25 0.24 0.22 0.20 0.17 0.20 0.20 0.15 0.10 0.07 0.04 0.02 0.02 0.01 0.01 0.01 0.02 0.01 0.02 0.02 0.02 0.01 0.01 0.01 0.01
0.00 0.00 0.00 0.01 0.01 0.01 0.01 0.01 0.01 0.02 0.03 0.04 0.06 0.05 0.04 0.03 0.04 0.05 0.06 0.11 0.11 0.12 0.16 0.18 0.24 0.28 0.27 0.25 0.22 0.20 0.19 0.16 0.13 0.10 0.08 0.05 0.03 0.02 0.01 0.01 0.01 0.01 0.01 0.01 0.01 0.01 0.01 0.01 0.01
0.00 0.00 0.00 0.00 0.01 0.01 0.00 0.00 0.01 0.02 0.03 0.05 0.07 0.05 0.04 0.06 0.06 0.05 0.06 0.08 0.08 0.10 0.13 0.15 0.19 0.23 0.27 0.23 0.22 0.19 0.19 0.17 0.14 0.11 0.09 0.07 0.05 0.03 0.02 0.01 0.01 0.02 0.01 0.01 0.01 0.01 0.01 0.01 0.01
0.00 0.00 0.00 0.00 0.00 0.00 0.00 0.01 0.01 0.01 0.02 0.03 0.05 0.04 0.04 0.05 0.04 0.04 0.05 0.05 0.06 0.08 0.09 0.10 0.14 0.21 0.28 0.23 0.20 0.22 0.23 0.21 0.16 0.12 0.08 0.06 0.04 0.03 0.02 0.01 0.01 0.01 0.00 0.00 0.01 0.01 0.01 0.01 0.01
0.00 0.00 0.00 0.00 0.00 0.00 0.00 0.01 0.02 0.03 0.03 0.04 0.05 0.07 0.06 0.07 0.04 0.03 0.04 0.04 0.04 0.06 0.06 0.07 0.10 0.17 0.27 0.23 0.20 0.18 0.14 0.12 0.08 0.06 0.06 0.06 0.04 0.03 0.02 0.01 0.01 0.00 0.00 0.00 0.01 0.01 0.01 0.01 0.00
0.00 0.00 0.00 0.00 0.00 0.00 0.00 0.01 0.03 0.03 0.06 0.06 0.08 0.07 0.06 0.04 0.03 0.03 0.03 0.03 0.03 0.04 0.05 0.06 0.07 0.10 0.18 0.17 0.19 0.20 0.16 0.12 0.10 0.08 0.07 0.07 0.06 0.04 0.02 0.01 0.01 0.00 0.00 0.00 0.01 0.01 0.01 0.01 0.00
0.00 0.00 0.00 0.00 0.00 0.01 0.01 0.03 0.05 0.04 0.05 0.07 0.08 0.06 0.05 0.03 0.03 0.03 0.03 0.03 0.03 0.03 0.04 0.06 0.05 0.06 0.10 0.12 0.14 0.21 0.21 0.16 0.12 0.08 0.06 0.05 0.04 0.04 0.03 0.01 0.01 0.00 0.00 0.01 0.01 0.01 0.01 0.00 0.00
0.00 0.00 0.00 0.00 0.01 0.03 0.02 0.04 0.05 0.05 0.04 0.05 0.05 0.03 0.03 0.02 0.02 0.02 0.02 0.02 0.02 0.02 0.03 0.03 0.04 0.05 0.05 0.08 0.11 0.14 0.20 0.16 0.12 0.09 0.07 0.05 0.03 0.02 0.02 0.02 0.01 0.01 0.01 0.01 0.01 0.01 0.01 0.01 0.00
0.00 0.00 0.00 0.00 0.01 0.03 0.04 0.05 0.07 0.08 0.05 0.04 0.04 0.03 0.02 0.02 0.02 0.02 0.01 0.01 0.01 0.02 0.02 0.02 0.03 0.04 0.06 0.08 0.10 0.12 0.18 0.18 0.14 0.12 0.08 0.04 0.02 0.01 0.02 0.02 0.02 0.02 0.02 0.03 0.03 0.02 0.02 0.01 0.01
0.00 0.00 0.00 0.00 0.00 0.02 0.05 0.10 0.16 0.11 0.08 0.07 0.05 0.04 0.04 0.04 0.03 0.03 0.02 0.01 0.01 0.01 0.01 0.02 0.04 0.07 0.08 0.08 0.10 0.13 0.16 0.17 0.16 0.13 0.11 0.07 0.04 0.03 0.03 0.04 0.04 0.04 0.04 0.03 0.03 0.02 0.01 0.02 0.02
0.00 0.00 0.00 0.00 0.01 0.03 0.07 0.11 0.14 0.10 0.08 0.07 0.07 0.07 0.09 0.09 0.06 0.03 0.02 0.02 0.02 0.02 0.01 0.02 0.04 0.10 0.17 0.16 0.15 0.16 0.19 0.19 0.17 0.15 0.11 0.10 0.08 0.07 0.06 0.06 0.06 0.06 0.05 0.04 0.04 0.03 0.03 0.03 0.02
0.00 0.00 0.00 0.00 0.00 0.01 0.05 0.08 0.06 0.05 0.05 0.06 0.08 0.11 0.11 0.09 0.05 0.03 0.03 0.02 0.03 0.03 0.03 0.04 0.05 0.15 0.25 0.20 0.16 0.15 0.18 0.19 0.17 0.13 0.11 0.10 0.10 0.08 0.07 0.06 0.06 0.07 0.05 0.04 0.03 0.03 0.03 0.03 0.03
0.00 0.00 0.00 0.00 0.00 0.01 0.02 0.04 0.04 0.07 0.07 0.09 0.09 0.09 0.09 0.09 0.06 0.04 0.04 0.04 0.06 0.06 0.06 0.09 0.10 0.17 0.19 0.14 0.13 0.13 0.14 0.15 0.16 0.16 0.14 0.14 0.11 0.07 0.06 0.07 0.08 0.06 0.04 0.04 0.03 0.03 0.03 0.04 0.03
MSLP
1009.99 1011.04 1012.17 1013.15 1013.79 1013.96 1013.64 1012.90 1011.92 1010.92 1010.08 1009.58 1009.44 1009.66 1010.10 1010.62 1011.08 1011.36 1011.43 1011.33 1011.15 1010.98 1010.93 1011.05 1011.35 1011.77 1012.23 1012.67 1013.01 1013.24 1013.38 1013.45 1013.52 1013.63 1013.80 1014.03 1014.29 1014.54 1014.74 1014.88 1014.95 1014.99 1015.02 1015.07 1015.14 1015.25 1015.37 1015.47 1015.55
1010.51 1011.73 1012.93 1013.86 1014.34 1014.29 1013.70 1012.71 1011.52 1010.35 1009.42 1008.87 1008.74 1008.98 1009.46 1010.01 1010.49 1010.80 1010.92 1010.87 1010.76 1010.68 1010.72 1010.92 1011.29 1011.76 1012.26 1012.72 1013.08 1013.33 1013.48 1013.58 1013.69 1013.83 1014.03 1014.26 1014.51 1014.73 1014.89 1014.98 1015.03 1015.05 1015.08 1015.14 1015.25 1015.39 1015.54 1015.67 1015.76
1011.15 1012.48 1013.65 1014.46 1014.73 1014.42 1013.58 1012.36 1011.00 1009.74 1008.78 1008.26 1008.18 1008.47 1009.00 1009.59 1010.10 1010.43 1010.57 1010.56 1010.50 1010.48 1010.59 1010.87 1011.29 1011.80 1012.33 1012.80 1013.17 1013.43 1013.61 1013.74 1013.87 1014.04 1014.25 1014.48 1014.70 1014.88 1014.99 1015.05 1015.06 1015.07 1015.11 1015.20 1015.34 1015.52 1015.71 1015.86 1015.97
1011.84 1013.16 1014.23 1014.84 1014.86 1014.29 1013.21 1011.82 1010.36 1009.09 1008.19 1007.75 1007.77 1008.15 1008.74 1009.37 1009.90 1010.23 1010.38 1010.40 1010.39 1010.43 1010.60 1010.92 1011.38 1011.92 1012.45 1012.91 1013.28 1013.54 1013.73 1013.88 1014.04 1014.23 1014.45 1014.67 1014.87 1015.01 1015.09 1015.11 1015.11 1015.11 1015.17 1015.28 1015.46 1015.68 1015.90 1016.08 1016.19
1012.46 1013.68 1014.55 1014.90 1014.66 1013.84 1012.58 1011.10 1009.63 1008.43 1007.65 1007.36 1007.51 1008.00 1008.65 1009.30 1009.83 1010.17 1010.33 1010.38 1010.40 1010.50 1010.73 1011.09 1011.57 1012.10 1012.61 1013.05 1013.39 1013.63 1013.82 1013.98 1014.16 1014.38 1014.61 1014.84 1015.04 1015.16 1015.22 1015.22 1015.20 1015.21 1015.28 1015.42 1015.64 1015.88 1016.13 1016.32 1016.45
1012.90 1013.93 1014.54 1014.61 1014.10 1013.08 1011.71 1010.21 1008.83 1007.78 1007.18 1007.06 1007.36 1007.95 1008.65 1009.32 1009.84 1010.17 1010.34 1010.42 1010.49 1010.65 1010.93 1011.34 1011.83 1012.34 1012.81 1013.20 1013.48 1013.69 1013.86 1014.03 1014.24 1014.48 1014.75 1015.01 1015.21 1015.34 1015.39 1015.39 1015.37 1015.38 1015.46 1015.62 1015.85 1016.12 1016.38 1016.58 1016.71
1013.09 1013.86 1014.18 1013.96 1013.22 1012.06 1010.66 1009.24 1008.01 1007.16 1006.78 1006.85 1007.28 1007.94 1008.66 1009.32 1009.81 1010.12 1010.30 1010.42 1010.57 1010.80 1011.16 1011.61 1012.11 1012.60 1013.02 1013.33 1013.56 1013.72 1013.86 1014.04 1014.27 1014.56 1014.87 1015.17 1015.41 1015.56 1015.62 1015.62 1015.59 1015.60 1015.69 1015.85 1016.09 1016.36 1016.62 1016.82 1016.95
1013.02 1013.51 1013.53 1013.06 1012.14 1010.90 1009.54 1008.25 1007.22 1006.61 1006.44 1006.68 1007.22 1007.91 1008.61 1009.22 1009.67 1009.96 1010.16 1010.33 1010.56 1010.89 1011.32 1011.83 1012.35 1012.82 1013.19 1013.45 1013.61 1013.72 1013.84 1014.02 1014.28 1014.61 1014.98 1015.33 1015.61 1015.79 1015.87 1015.87 1015.85 1015.85 1015.92 1016.07 1016.29 1016.56 1016.81 1017.02 1017.15
1012.73 1012.94 1012.69 1012.01 1010.96 1009.71 1008.44 1007.33 1006.53 1006.14 1006.16 1006.53 1007.12 1007.80 1008.45 1008.98 1009.37 1009.63 1009.85 1010.09 1010.41 1010.85 1011.38 1011.96 1012.52 1012.98 1013.32 1013.53 1013.64 1013.71 1013.81 1014.00 1014.29 1014.67 1015.09 1015.50 1015.82 1016.04 1016.13 1016.13 1016.09 1016.07 1016.12 1016.24 1016.45 1016.70 1016.94 1017.15 1017.30
1012.28 1012.25 1011.78 1010.94 1009.84 1008.62 1007.47 1006.54 1005.95 1005.76 1005.92 1006.37 1006.97 1007.59 1008.16 1008.60 1008.91 1009.15 1009.38 1009.69 1010.11 1010.66 1011.30 1011.96 1012.56 1013.05 1013.38 1013.56 1013.64 1013.70 1013.80 1014.00 1014.33 1014.75 1015.21 1015.66 1016.02 1016.26 1016.36 1016.36 1016.30 1016.25 1016.26 1016.36 1016.54 1016.77 1017.02 1017.24 1017.41
1011.78 1011.56 1010.93 1009.99 1008.87 1007.72 1006.70 1005.94 1005.53 1005.48 1005.73 1006.20 1006.76 1007.30 1007.76 1008.10 1008.34 1008.55 1008.81 1009.18 1009.70 1010.34 1011.08 1011.82 1012.48 1012.99 1013.34 1013.53 1013.62 1013.69 1013.81 1014.03 1014.39 1014.84 1015.34 1015.81 1016.19 1016.44 1016.54 1016.53 1016.46 1016.38 1016.36 1016.43 1016.58 1016.80 1017.06 1017.30 1017.50
1011.33 1010.97 1010.24 1009.25 1008.15 1007.07 1006.18 1005.56 1005.26 1005.30 1005.59 1006.04 1006.52 1006.97 1007.32 1007.57 1007.75 1007.94 1008.22 1008.63 1009.22 1009.94 1010.74 1011.55 1012.26 1012.82 1013.21 1013.44 1013.57 1013.67 1013.83 1014.09 1014.47 1014.94 1015.45 1015.93 1016.31 1016.56 1016.67 1016.65 1016.57 1016.47 1016.44 1016.48 1016.62 1016.84 1017.10 1017.37 1017.61
1011.00 1010.54 1009.76 1008.77 1007.70 1006.71 1005.91 1005.39 1005.18 1005.25 1005.52 1005.91 1006.32 1006.66 1006.92 1007.09 1007.23 1007.41 1007.70 1008.14 1008.75 1009.51 1010.35 1011.18 1011.93 1012.54 1012.98 1013.27 1013.47 1013.64 1013.85 1014.15 1014.55 1015.03 1015.54 1016.01 1016.38 1016.63 1016.73 1016.72 1016.64 1016.56 1016.52 1016.56 1016.70 1016.92 1017.20 1017.49 1017.76
1010.83 1010.32 1009.53 1008.56 1007.55 1006.64 1005.92 1005.46 1005.27 1005.33 1005.56 1005.88 1006.19 1006.46 1006.65 1006.78 1006.90 1007.06 1007.35 1007.78 1008.39 1009.13 1009.95 1010.77 1011.53 1012.17 1012.67 1013.04 1013.32 1013.57 1013.85 1014.19 1014.61 1015.09 1015.58 1016.02 1016.38 1016.62 1016.74 1016.75 1016.70 1016.65 1016.63 1016.70 1016.85 1017.08 1017.37 1017.68 1017.98
1010.81 1010.28 1009.50 1008.58 1007.65 1006.82 1006.17 1005.75 1005.56 1005.58 1005.74 1005.98 1006.22 1006.42 1006.58 1006.69 1006.80 1006.96 1007.23 1007.63 1008.18 1008.85 1009.60 1010.38 1011.11 1011.76 1012.31 1012.76 1013.14 1013.48 1013.83 1014.22 1014.65 1015.10 1015.56 1015.97 1016.31 1016.55 1016.70 1016.75 1016.76 1016.76 1016.80 1016.90 1017.07 1017.31 1017.61 1017.93 1018.24
1010.87 1010.34 1009.61 1008.79 1007.96 1007.23 1006.65 1006.26 1006.05 1006.02 1006.10 1006.25 1006.42 1006.58 1006.71 1006.83 1006.94 1007.11 1007.35 1007.69 1008.15 1008.71 1009.36 1010.04 1010.72 1011.37 1011.95 1012.48 1012.95 1013.38 1013.80 1014.22 1014.65 1015.08 1015.49 1015.86 1016.18 1016.43 1016.60 1016.72 1016.81 1016.89 1017.00 1017.14 1017.34 1017.60 1017.89 1018.21 1018.52
1010.95 1010.45 1009.81 1009.12 1008.44 1007.83 1007.34 1006.98 1006.76 1006.66 1006.65 1006.71 1006.81 1006.92 1007.05 1007.17 1007.30 1007.46 1007.67 1007.94 1008.30 1008.73 1009.24 1009.81 1010.42 1011.04 1011.65 1012.23 1012.78 1013.30 1013.78 1014.22 1014.63 1015.02 1015.38 1015.71 1016.00 1016.25 1016.47 1016.66 1016.84 1017.02 1017.20 1017.40 1017.63 1017.89 1018.18 1018.47 1018.77
1010.95 1010.52 1010.02 1009.51 1009.03 1008.60 1008.22 1007.91 1007.67 1007.49 1007.38 1007.33 1007.34 1007.40 1007.50 1007.63 1007.78 1007.95 1008.13 1008.33 1008.58 1008.88 1009.26 1009.70 1010.23 1010.81 1011.43 1012.06 1012.68 1013.26 1013.78 1014.23 1014.62 1014.96 1015.26 1015.53 1015.79 1016.05 1016.31 1016.58 1016.84 1017.11 1017.37 1017.63 1017.88 1018.14 1018.41 1018.68 1018.95
1010.81 1010.50 1010.20 1009.94 1009.71 1009.48 1009.26 1009.01 1008.74 1008.47 1008.24 1008.06 1007.95 1007.94 1008.00 1008.12 1008.28 1008.45 1008.62 1008.77 1008.94 1009.13 1009.38 1009.72 1010.17 1010.71 1011.32 1011.98 1012.65 1013.27 1013.82 1014.27 1014.63 1014.91 1015.14 1015.36 1015.58 1015.84 1016.14 1016.46 1016.81 1017.16 1017.49 1017.79 1018.06 1018.32 1018.56 1018.80 1019.05
1010.50 1010.36 1010.33 1010.37 1010.43 1010.46 1010.40 1010.22 1009.93 1009.56 1009.16 1008.82 1008.56 1008.43 1008.42 1008.53 1008.69 1008.88 1009.04 1009.18 1009.30 1009.42 1009.58 1009.84 1010.21 1010.71 1011.32 1011.99 1012.68 1013.33 1013.89 1014.33 1014.66 1014.89 1015.06 1015.22 1015.41 1015.66 1015.97 1016.34 1016.75 1017.16 1017.54 1017.87 1018.15 1018.39 1018.61 1018.83 1019.06
1010.04 1010.13 1010.41 1010.79 1011.18 1011.47 1011.58 1011.47 1011.14 1010.65 1010.07 1009.52 1009.08 1008.81 1008.71 1008.77 1008.93 1009.14 1009.34 1009.49 1009.59 1009.68 1009.80 1010.00 1010.32 1010.78 1011.37 1012.04 1012.74 1013.40 1013.97 1014.40 1014.70 1014.89 1015.01 1015.13 1015.29 1015.52 1015.84 1016.24 1016.67 1017.11 1017.52 1017.87 1018.15 1018.38 1018.58 1018.77 1018.99
1009.49 1009.86 1010.46 1011.20 1011.92 1012.47 1012.75 1012.69 1012.30 1011.66 1010.88 1010.11 1009.46 1009.02 1008.81 1008.81 1008.97 1009.21 1009.45 1009.65 1009.78 1009.88 1009.98 1010.15 1010.43 1010.86 1011.42 1012.09 1012.78 1013.44 1014.01 1014.44 1014.73 1014.90 1015.01 1015.10 1015.23 1015.45 1015.76 1016.16 1016.61 1017.06 1017.47 1017.82 1018.09 1018.30 1018.49 1018.67 1018.88
1008.95 1009.60 1010.54 1011.61 1012.62 1013.40 1013.81 1013.78 1013.32 1012.52 1011.54 1010.54 1009.68 1009.07 1008.74 1008.68 1008.83 1009.11 1009.41 1009.66 1009.85 1009.97 1010.08 1010.24 1010.50 1010.89 1011.42 1012.06 1012.74 1013.40 1013.98 1014.42 1014.72 1014.90 1015.01 1015.10 1015.23 1015.44 1015.74 1016.13 1016.56 1017.00 1017.39 1017.73 1017.99 1018.20 1018.37 1018.55 1018.76
1008.51 1009.43 1010.66 1012.01 1013.26 1014.21 1014.70 1014.66 1014.12 1013.17 1012.00 1010.81 1009.76 1008.98 1008.55 1008.43 1008.58 1008.89 1009.24 1009.56 1009.81 1009.97 1010.10 1010.24 1010.47 1010.83 1011.32 1011.92 1012.58 1013.24 1013.83 1014.30 1014.64 1014.86 1015.00 1015.12 1015.26 1015.47 1015.76 1016.13 1016.53 1016.94 1017.32 1017.63 1017.88 1018.08 1018.25 1018.43 1018.65
1008.24 1009.39 1010.84 1012.39 1013.79 1014.83 1015.36 1015.29 1014.66 1013.59 1012.27 1010.92 1009.73 1008.84 1008.31 1008.16 1008.30 1008.63 1009.03 1009.41 1009.70 1009.89 1010.03 1010.16 1010.36 1010.67 1011.12 1011.68 1012.32 1012.97 1013.58 1014.09 1014.48 1014.76 1014.96 1015.13 1015.30 1015.52 1015.81 1016.15 1016.52 1016.90 1017.24 1017.53 1017.77 1017.96 1018.13 1018.32 1018.55
1008.18 1009.49 1011.08 1012.72 1014.18 1015.24 1015.74 1015.62 1014.92 1013.76 1012.35 1010.91 1009.64 1008.68 1008.11 1007.94 1008.08 1008.42 1008.85 1009.25 1009.56 1009.78 1009.91 1010.03 1010.19 1010.46 1010.85 1011.37 1011.98 1012.62 1013.25 1013.80 1014.26 1014.61 1014.88 1015.10 1015.32 1015.56 1015.84 1016.16 1016.50 1016.84 1017.15 1017.42 1017.64 1017.83 1018.02 1018.22 1018.46
1008.33 1009.72 1011.33 1012.96 1014.37 1015.37 1015.80 1015.62 1014.87 1013.68 1012.25 1010.80 1009.52 1008.57 1008.00 1007.82 1007.95 1008.30 1008.73 1009.13 1009.45 1009.66 1009.79 1009.89 1010.02 1010.24 1010.59 1011.06 1011.64 1012.27 1012.90 1013.49 1014.00 1014.41 1014.75 1015.03 1015.29 1015.55 1015.83 1016.14 1016.45 1016.75 1017.03 1017.28 1017.49 1017.69 1017.88 1018.10 1018.34
1008.64 1010.01 1011.55 1013.06 1014.34 1015.20 1015.53 1015.29 1014.52 1013.36 1011.98 1010.61 1009.40 1008.51 1007.98 1007.82 1007.95 1008.29 1008.70 1009.09 1009.39 1009.59 1009.71 1009.79 1009.90 1010.09 1010.40 1010.84 1011.38 1011.99 1012.61 1013.21 1013.74 1014.20 1014.58 1014.91 1015.20 1015.48 1015.76 1016.04 1016.33 1016.60 1016.86 1017.09 1017.30 1017.50 1017.71 1017.93 1018.18
1009.02 1010.29 1011.67 1012.98 1014.05 1014.73 1014.94 1014.64 1013.89 1012.81 1011.56 1010.33 1009.27 1008.48 1008.03 1007.91 1008.05 1008.36 1008.74 1009.10 1009.39 1009.58 1009.70 1009.78 1009.89 1010.08 1010.37 1010.77 1011.27 1011.84 1012.44 1013.01 1013.54 1013.99 1014.39 1014.73 1015.03 1015.31 1015.59 1015.86 1016.13 1016.38 1016.63 1016.85 1017.06 1017.26 1017.48 1017.71 1017.96
1009.38 1010.49 1011.64 1012.68 1013.50 1013.98 1014.05 1013.72 1013.02 1012.07 1011.00 1009.97 1009.09 1008.46 1008.12 1008.04 1008.19 1008.48 1008.82 1009.15 1009.42 1009.62 1009.75 1009.87 1010.01 1010.21 1010.50 1010.88 1011.34 1011.86 1012.39 1012.91 1013.38 1013.81 1014.17 1014.50 1014.79 1015.07 1015.34 1015.60 1015.86 1016.10 1016.34 1016.56 1016.77 1016.98 1017.19 1017.42 1017.66
Thickness
5825 5823 5819 5808 5786 5767 5764 5786 5803 5807 5811 5822 5824 5817 5806 5798 5787 5777 5801 5807 5803 5798 5794 5790 5788 5786 5785 5783 5782 5780 5779 5777 5776 5775 5774 5773 5771 5770 5768 5766 5764 5763 5761 5759 5757 5756 5754 5753 5751
5826 5823 5812 5795 5769 5750 5765 5793 5803 5811 5819 5825 5822 5816 5807 5801 5807 5801 5801 5803 5802 5797 5793 5789 5787 5785 5783 5782 5781 5779 5778 5776 5775 5774 5773 5771 5770 5768 5767 5765 5763 5761 5759 5757 5755 5754 5752 5750 5749
5826 5822 5798 5779 5763 5754 5768 5798 5808 5820 5829 5825 5815 5814 5806 5801 5806 5803 5804 5803 5799 5794 5791 5788 5786 5784 5782 5780 5779 5778 5777 5775 5774 5773 5771 5770 5768 5767 5765 5763 5761 5759 5758 5756 5754 5752 5750 5748 5747
5821 5806 5791 5770 5762 5777 5788 5803 5816 5819 5823 5825 5815 5803 5808 5816 5814 5809 5804 5801 5796 5791 5788 5786 5784 5782 5780 5779 5777 5776 5775 5774 5773 5771 5770 5768 5767 5765 5764 5762 5760 5757 5756 5754 5752 5750 5748 5747 5745
5815 5793 5772 5760 5769 5792 5809 5818 5820 5817 5817 5818 5814 5798 5798 5813 5818 5810 5802 5797 5792 5788 5786 5785 5782 5780 5779 5777 5775 5774 5773 5772 5771 5770 5768 5767 5765 5764 5762 5760 5758 5756 5754 5752 5751 5749 5747 5746 5744
5797 5784 5761 5755 5774 5799 5813 5825 5822 5819 5816 5816 5811 5798 5793 5808 5808 5803 5800 5794 5791 5788 5785 5783 5781 5778 5777 5775 5774 5772 5771 5770 5769 5768 5767 5765 5763 5762 5760 5758 5756 5754 5753 5751 5749 5747 5746 5744 5743
5790 5777 5765 5770 5779 5795 5815 5828 5820 5817 5814 5817 5817 5795 5792 5801 5805 5803 5797 5792 5789 5786 5784 5781 5779 5777 5775 5773 5772 5771 5769 5768 5767 5766 5765 5763 5761 5760 5758 5756 5754 5753 5751 5749 5748 5746 5745 5743 5742
5805 5783 5773 5774 5781 5793 5819 5828 5828 5824 5819 5829 5824 5799 5791 5803 5807 5802 5794 5789 5786 5783 5781 5779 5777 5775 5773 5772 5770 5769 5767 5766 5765 5764 5763 5761 5759 5758 5756 5754 5753 5751 5749 5748 5747 5745 5743 5742 5740
5814 5777 5766 5778 5788 5800 5822 5823 5828 5834 5827 5825 5826 5820 5816 5815 5807 5797 5787 5782 5780 5778 5777 5777 5775 5773 5771 5770 5769 5767 5765 5764 5762 5762 5761 5759 5757 5756 5754 5752 5751 5749 5748 5746 5745 5743 5742 5741 5740
5801 5773 5784 5805 5812 5814 5824 5825 5825 5821 5815 5812 5814 5818 5818 5813 5804 5794 5785 5779 5777 5776 5775 5775 5774 5772 5769 5769 5767 5765 5763 5761 5760 5759 5759 5757 5755 5754 5752 5750 5749 5748 5746 5745 5743 5742 5741 5740 5739
5804 5793 5808 5819 5826 5826 5824 5826 5831 5818 5805 5811 5811 5811 5811 5806 5800 5794 5788 5784 5782 5779 5777 5774 5773 5770 5768 5767 5764 5763 5761 5759 5758 5757 5756 5754 5753 5752 5750 5748 5747 5746 5744 5743 5742 5741 5740 5739 5738
5808 5813 5820 5826 5833 5829 5827 5829 5826 5823 5822 5831 5828 5822 5813 5804 5799 5795 5790 5786 5783 5779 5777 5774 5772 5768 5766 5764 5762 5760 5759 5757 5755 5755 5754 5752 5751 5750 5748 5747 5745 5744 5743 5741 5741 5740 5738 5738 5737
5807 5813 5825 5832 5833 5834 5832 5828 5828 5826 5834 5833 5828 5821 5813 5805 5801 5798 5796 5790 5784 5779 5776 5773 5771 5768 5765 5762 5760 5758 5757 5755 5754 5753 5752 5752 5750 5748 5747 5745 5744 5742 5742 5741 5739 5738 5737 5737 5736
5812 5816 5822 5829 5830 5833 5827 5825 5824 5823 5832 5826 5819 5811 5809 5805 5800 5795 5792 5788 5784 5780 5776 5773 5771 5768 5764 5761 5759 5757 5756 5755 5753 5752 5751 5751 5750 5748 5746 5744 5742 5742 5741 5740 5739 5738 5737 5735 5735
5817 5807 5811 5823 5827 5829 5825 5809 5816 5827 5827 5817 5811 5807 5802 5802 5799 5796 5793 5789 5785 5780 5777 5772 5769 5766 5763 5760 5757 5756 5755 5754 5753 5752 5751 5750 5750 5748 5746 5744 5742 5741 5741 5740 5739 5738 5736 5735 5734
5803 5793 5786 5810 5823 5827 5812 5789 5814 5825 5820 5810 5807 5804 5798 5796 5796 5795 5792 5788 5784 5779 5774 5770 5767 5762 5759 5757 5755 5754 5753 5752 5751 5751 5750 5750 5749 5748 5746 5743 5742 5741 5740 5739 5738 5737 5735 5733 5732
5778 5770 5776 5797 5822 5822 5808 5793 5811 5821 5815 5806 5803 5800 5797 5793 5792 5791 5790 5787 5783 5778 5772 5767 5764 5759 5756 5754 5752 5751 5750 5749 5749 5749 5748 5748 5748 5747 5745 5743 5742 5740 5739 5738 5738 5736 5734 5731 5730
5760 5767 5775 5785 5812 5815 5803 5798 5809 5815 5813 5805 5802 5799 5795 5792 5791 5790 5788 5785 5780 5775 5770 5764 5760 5757 5754 5750 5747 5746 5746 5745 5746 5746 5746 5746 5746 5745 5744 5742 5741 5740 5738 5736 5736 5734 5733 5732 5730
5776 5772 5771 5789 5813 5807 5799 5796 5802 5808 5807 5802 5797 5795 5793 5791 5792 5788 5785 5781 5776 5771 5766 5762 5758 5754 5751 5746 5743 5741 5741 5742 5742 5744 5744 5744 5744 5743 5743 5742 5740 5739 5737 5736 5735 5733 5732 5730 5730
5778 5770 5774 5792 5810 5804 5791 5789 5799 5804 5803 5801 5797 5794 5793 5789 5786 5785 5782 5779 5774 5769 5764 5760 5756 5752 5750 5747 5744 5742 5741 5741 5741 5741 5741 5742 5742 5742 5741 5740 5739 5738 5736 5734 5733 5732 5729 5729 5729
5777 5773 5779 5785 5799 5798 5787 5774 5783 5795 5800 5801 5799 5797 5794 5791 5786 5784 5780 5776 5772 5767 5763 5760 5755 5752 5749 5746 5742 5738 5736 5736 5736 5737 5738 5740 5740 5740 5740 5739 5738 5737 5735 5733 5732 5732 5729 5726 5727
5768 5793 5795 5793 5778 5761 5773 5747 5769 5780 5786 5791 5792 5792 5789 5791 5788 5783 5779 5774 5771 5768 5764 5760 5755 5751 5748 5745 5741 5737 5735 5733 5736 5737 5737 5738 5739 5739 5738 5737 5737 5736 5735 5733 5732 5732 5730 5728 5725
5784 5802 5797 5791 5773 5755 5759 5746 5753 5771 5772 5779 5785 5789 5788 5789 5786 5782 5779 5775 5771 5768 5763 5758 5754 5750 5747 5744 5742 5738 5736 5736 5736 5736 5735 5735 5736 5737 5737 5736 5735 5734 5734 5733 5732 5731 5731 5729 5726
5802 5795 5783 5768 5752 5733 5746 5741 5741 5758 5770 5777 5784 5786 5786 5786 5785 5781 5777 5773 5768 5765 5760 5756 5751 5748 5745 5743 5741 5739 5736 5735 5733 5733 5733 5733 5733 5734 5735 5735 5734 5734 5733 5732 5731 5731 5730 5729 5728
5792 5759 5731 5730 5718 5722 5745 5742 5743 5771 5782 5783 5782 5784 5784 5784 5781 5776 5772 5768 5765 5761 5759 5755 5750 5746 5746 5744 5742 5740 5738 5737 5735 5734 5733 5732 5731 5732 5733 5734 5733 5732 5732 5731 5730 5730 5729 5728 5727
5780 5759 5727 5716 5713 5720 5739 5736 5753 5778 5786 5789 5789 5787 5782 5778 5777 5775 5773 5769 5765 5762 5759 5755 5751 5747 5746 5744 5742 5741 5739 5737 5736 5735 5734 5733 5733 5733 5733 5733 5732 5731 5731 5730 5729 5729 5728 5727 5726
5777 5764 5762 5736 5727 5716 5724 5740 5759 5777 5778 5781 5783 5781 5777 5777 5775 5772 5771 5769 5766 5762 5759 5756 5752 5748 5746 5744 5742 5740 5738 5737 5736 5735 5734 5733 5733 5733 5733 5732 5730 5730 5729 5729 5728 5727 5726 5726 5725
5791 5778 5749 5733 5714 5706 5717 5727 5736 5758 5764 5769 5771 5771 5773 5775 5771 5769 5768 5767 5765 5762 5759 5756 5753 5750 5747 5744 5742 5740 5738 5737 5735 5734 5732 5732 5732 5732 5731 5730 5729 5728 5727 5727 5726 5725 5724 5723 5722
5775 5767 5750 5733 5727 5710 5704 5722 5763 5766 5769 5769 5770 5770 5771 5771 5770 5767 5766 5765 5763 5761 5757 5753 5751 5748 5745 5743 5742 5739 5737 5736 5735 5733 5732 5732 5731 5731 5729 5729 5727 5726 5725 5725 5723 5722 5722 5720 5719
5776 5764 5748 5728 5725 5721 5712 5725 5772 5772 5772 5770 5768 5767 5767 5766 5766 5765 5764 5762 5758 5756 5754 5752 5750 5747 5745 5743 5741 5738 5736 5734 5733 5732 5731 5730 5729 5729 5729 5727 5726 5724 5724 5722 5721 5720 5719 5718 5716